Regional Weather Roundup
Issued by NWS Kansas City/Pleasant Hill, MO

Home | Current Version | Previous Version | Text Only | Print | Product List | Glossary On
Versions: 1 2 3 4 5 6 7 8 9 10 11 12 13 14 15 16 17 18 19 20 21 22 23 24 25 26 27 28 29 30 31 32 33 34 35 36 37 38 39 40 41 42 43 44 45 46 47 48 49 50
000
ASUS43 KEAX 221811
RWREAX

WEATHER ROUNDUP FOR EASTERN KANSAS AND NORTHWEST MISSOURI
NATIONAL WEATHER SERVICE KANSAS CITY/PLEASANT HILL MO
100 PM CDT TUE JUL 22 2014

KSZ040-057-103>105-MOZ028-029-037-043-221900-
...KANSAS CITY METROPOLITAN AREA...

CITY           SKY/WX    TMP DP  RH WIND       PRES   REMARKS
K.C. INTL      MOSUNNY   90  77  65 SW9       30.03F HX 103
6HR MIN TEMP:  77; 6HR MAX TEMP:  90;

K.C. DOWNTOWN  SUNNY     94  75  54 SW9       30.01F HX 105
6HR MIN TEMP:  79; 6HR MAX TEMP:  94;

LEES SUMMIT    SUNNY     90  77  65 SW13      30.05S HX 103
6HR MIN TEMP:  75; 6HR MAX TEMP:  90;

OLATHE - IXD   SUNNY     93  74  53 SW8       30.05F HX 103
6HR MIN TEMP:  74; 6HR MAX TEMP:  94;

OLATHE - OJC   SUNNY     89  77  67 VRB7      30.05F HX 101
6HR MIN TEMP:  73; 6HR MAX TEMP:  90;

LAWRENCE       SUNNY     93  73  52 SW7       30.03F HX 102

$$

MOZ001>008-011>017-020>025-030>033-038>040-044>046-053-054-221900-
...NORTHERN AND CENTRAL MISSOURI...

CITY           SKY/WX    TMP DP  RH WIND       PRES   REMARKS
ST. JOSEPH     MOSUNNY   91  77  63 SW10      30.00  HX 104
6HR MIN TEMP:  77; 6HR MAX TEMP:  91;

MOSBY          CLEAR     91  73  55 SW7       30.02S HX 100
WARRENSBURG    SUNNY     88  73  62 SW12      30.04F HX  96
WHITEMAN AFB   MOSUNNY   89  73  59 W12       30.04F HX  96
6HR MIN TEMP:  72; 6HR MAX TEMP:  89;

CLINTON        SUNNY     90  79  70 W13       30.06F HX 105
SEDALIA        MOSUNNY   90  76  63 SW8       30.06S HX 101
6HR MIN TEMP:  72; 6HR MAX TEMP:  91;

WARSAW         NOT AVBL
MARSHALL       MOSUNNY   91  79  66 W8        30.05S HAZE    HX 107
CHILLICOTHE      N/A     90  77  65 S6        30.01F HX 103
6HR MIN TEMP:  76; 6HR MAX TEMP:  91;

MOBERLY        MOSUNNY   90  73  58 SW7       30.05F HX  98
KIRKSVILLE     MOSUNNY   87  77  72 S14       30.03F HX  99
6HR MIN TEMP:  75; 6HR MAX TEMP:  87;


$$

MOZ041-047>049-056>058-063>065-088>090-097-221900-
...EASTERN AND SOUTHERN MISSOURI...

CITY           SKY/WX    TMP DP  RH WIND       PRES   REMARKS
ST. LOUIS INTL CLOUDY    90  69  50 VRB5      30.07F HX  94
6HR MIN TEMP:  74; 6HR MAX TEMP:  90;

SPIRIT OF STL  CLOUDY    89  70  53 W6        30.05F HX  94
COLUMBIA       PTSUNNY   90  76  63 S3        30.07S HX 101
JEFFERSON CITY PTSUNNY   88  75  65 MISG      30.05S HX  97
MEXICO         CLOUDY    88  79  74 S5        30.06F HX 102
HANNIBAL       CLOUDY    81  70  69 SW9G18    30.01F
ROLLA          PTSUNNY   89  72  56 SW5       30.09R HX  96
LEBANON        MOSUNNY   90  72  55 W5        30.11S HX  96
OSAGE BEACH    MOSUNNY   90  73  58 SW5       30.07F HX  98
SPRINGFIELD    PTSUNNY   87  74  64 SW8       30.11F HX  95
BRANSON        MOSUNNY   93  70  46 NW3       30.14S HX  99
NEVADA         SUNNY     90  77  66 SW9       30.08F HX 102
JOPLIN         SUNNY     91  73  55 W13       30.10S HX  99
WEST PLAINS    SUNNY     84  70  62 CALM      30.13F
MALDEN         SUNNY     88  66  48 S3        30.09F HX  90

$$

IAZ060-094-KSZ022-034>040-054-083-096-NEZ052-066-093-221900-
...KANSAS...SOUTHEAST NEBRASKA AND IOWA...

CITY           SKY/WX    TMP DP  RH WIND       PRES   REMARKS
TOPEKA         SUNNY     98  70  40 W6        30.02F HX 105
6HR MIN TEMP:  79; 6HR MAX TEMP:  98;

MANHATTAN      PTSUNNY   97  68  38 W8        30.02F HX 102
EMPORIA        SUNNY     95  72  47 W3        30.06F HX 103
CHANUTE        SUNNY     92  73  53 MISG      30.09R HX 100
WICHITA        MOSUNNY   92  73  53 VRB3      30.08R HX 100
OMAHA          PTSUNNY   92  72  51 N16       30.03R HX  99
LINCOLN        PTSUNNY   94  74  52 N8G17     30.05R HX 104
FALLS CITY     MOSUNNY   94  74  52 SW8       30.00S HAZE    HX 104
LAMONI         PTSUNNY   88  76  67 SW7       30.00F HX  99
DES MOINES     CLOUDY    90  77  65 S6        29.96R HX 103

$$



USA.gov is the U.S. government's official web portal to all federal, state and local government web resources and services.